Time,TemperatureF,DewpointF,PressureIn,WindDirection,WindDirectionDegrees,WindSpeedMPH,WindSpeedGustMPH,Humidity,HourlyPrecipIn,Conditions,Clouds,dailyrainin,SoftwareType,DateUTC
2013-06-28 00:01:00,69.0,-99.9,-100.00,WSW,256,3.0,5.0,-999,-99.99,,,-99.99,,2013-06-28 07:01:00,
2013-06-28 00:43:00,69.0,-99.9,-100.00,WSW,245,3.0,6.0,-999,-99.99,,,-99.99,,2013-06-28 07:43:00,
2013-06-28 00:52:00,69.0,-99.9,-100.00,WSW,245,3.0,6.0,-999,-99.99,,,-99.99,,2013-06-28 07:52:00,
2013-06-28 01:00:00,66.0,-99.9,-100.00,SW,235,4.0,7.0,-999,-99.99,,,-99.99,,2013-06-28 08:00:00,
2013-06-28 01:11:00,70.0,-99.9,-100.00,West,266,2.0,4.0,-999,-99.99,,,-99.99,,2013-06-28 08:11:00,
2013-06-28 01:43:00,66.0,-99.9,-100.00,WSW,253,4.0,6.0,-999,-99.99,,,-99.99,,2013-06-28 08:43:00,
2013-06-28 01:52:00,66.0,-99.9,-100.00,SW,235,4.0,7.0,-999,-99.99,,,-99.99,,2013-06-28 08:52:00,
2013-06-28 02:00:00,66.0,-99.9,-100.00,West,273,2.0,5.0,-999,-99.99,,,-99.99,,2013-06-28 09:00:00,
2013-06-28 02:42:00,66.0,-99.9,-100.00,West,273,2.0,5.0,-999,-99.99,,,-99.99,,2013-06-28 09:42:00,
2013-06-28 02:52:00,66.0,-99.9,-100.00,West,273,2.0,5.0,-999,-99.99,,,-99.99,,2013-06-28 09:52:00,
2013-06-28 03:42:00,64.0,-99.9,-100.00,West,260,2.0,6.0,-999,-99.99,,,-99.99,,2013-06-28 10:42:00,
2013-06-28 03:52:00,63.0,-99.9,-100.00,WSW,240,2.0,6.0,-999,-99.99,,,-99.99,,2013-06-28 10:52:00,
2013-06-28 04:00:00,62.0,-99.9,-100.00,SW,227,3.0,7.0,-999,-99.99,,,-99.99,,2013-06-28 11:00:00,
2013-06-28 04:02:00,63.0,-99.9,-100.00,WSW,240,2.0,6.0,-999,-99.99,,,-99.99,,2013-06-28 11:02:00,
2013-06-28 04:22:00,65.0,-99.9,-100.00,WSW,241,2.0,6.0,-999,-99.99,,,-99.99,,2013-06-28 11:22:00,
2013-06-28 04:43:00,62.0,-99.9,-100.00,SW,227,3.0,7.0,-999,-99.99,,,-99.99,,2013-06-28 11:43:00,
2013-06-28 04:53:00,62.0,-99.9,-100.00,SW,227,3.0,7.0,-999,-99.99,,,-99.99,,2013-06-28 11:53:00,
2013-06-28 05:00:00,63.0,-99.9,-100.00,WNW,286,3.0,7.0,-999,-99.99,,,-99.99,,2013-06-28 12:00:00,
2013-06-28 05:22:00,62.0,-99.9,-100.00,WSW,245,4.0,6.0,-999,-99.99,,,-99.99,,2013-06-28 12:22:00,
2013-06-28 05:34:00,62.0,-99.9,-100.00,West,273,3.0,7.0,-999,-99.99,,,-99.99,,2013-06-28 12:34:00,
2013-06-28 05:43:00,62.0,-99.9,-100.00,West,273,3.0,7.0,-999,-99.99,,,-99.99,,2013-06-28 12:43:00,
2013-06-28 05:52:00,63.0,-99.9,-100.00,WNW,286,3.0,7.0,-999,-99.99,,,-99.99,,2013-06-28 12:52:00,
2013-06-28 06:00:00,63.0,-99.9,-100.00,WNW,295,3.0,5.0,-999,-99.99,,,-99.99,,2013-06-28 13:00:00,
2013-06-28 06:43:00,63.0,-99.9,-100.00,WNW,295,3.0,5.0,-999,-99.99,,,-99.99,,2013-06-28 13:43:00,
2013-06-28 06:53:00,63.0,-99.9,-100.00,WNW,295,3.0,5.0,-999,-99.99,,,-99.99,,2013-06-28 13:53:00,
2013-06-28 07:20:00,67.0,-99.9,-100.00,West,272,6.0,9.0,-999,-99.99,,,-99.99,,2013-06-28 14:20:00,
2013-06-28 07:44:00,65.0,-99.9,-100.00,West,280,5.0,6.0,-999,-99.99,,,-99.99,,2013-06-28 14:44:00,
2013-06-28 07:53:00,65.0,-99.9,-100.00,West,280,5.0,6.0,-999,-99.99,,,-99.99,,2013-06-28 14:53:00,
2013-06-28 08:00:00,66.0,-99.9,-100.00,NW,307,2.0,4.0,-999,-99.99,,,-99.99,,2013-06-28 15:00:00,
2013-06-28 08:11:00,67.0,-99.9,-100.00,West,272,6.0,9.0,-999,-99.99,,,-99.99,,2013-06-28 15:11:00,
2013-06-28 08:43:00,66.0,-99.9,-100.00,NW,307,2.0,4.0,-999,-99.99,,,-99.99,,2013-06-28 15:43:00,
2013-06-28 08:52:00,66.0,-99.9,-100.00,NW,307,2.0,4.0,-999,-99.99,,,-99.99,,2013-06-28 15:52:00,
2013-06-28 09:00:00,69.0,-99.9,-100.00,NE,39,2.0,4.0,-999,-99.99,,,-99.99,,2013-06-28 16:00:00,
2013-06-28 09:44:00,69.0,-99.9,-100.00,NE,39,2.0,4.0,-999,-99.99,,,-99.99,,2013-06-28 16:44:00,
2013-06-28 09:53:00,69.0,-99.9,-100.00,NE,39,2.0,4.0,-999,-99.99,,,-99.99,,2013-06-28 16:53:00,
2013-06-28 10:00:00,76.0,-99.9,-100.00,SSW,199,0.0,4.0,-999,-99.99,,,-99.99,,2013-06-28 17:00:00,
2013-06-28 10:44:00,76.0,-99.9,-100.00,SSW,199,0.0,4.0,-999,-99.99,,,-99.99,,2013-06-28 17:44:00,
2013-06-28 10:52:00,76.0,-99.9,-100.00,SSW,199,0.0,4.0,-999,-99.99,,,-99.99,,2013-06-28 17:52:00,
2013-06-28 11:43:00,81.0,-99.9,-100.00,NE,38,3.0,4.0,-999,-99.99,,,-99.99,,2013-06-28 18:43:00,
2013-06-28 11:52:00,81.0,-99.9,-100.00,NE,38,3.0,4.0,-999,-99.99,,,-99.99,,2013-06-28 18:52:00,
2013-06-28 12:11:00,85.0,-99.9,-100.00,NNE,19,4.0,5.0,-999,-99.99,,,-99.99,,2013-06-28 19:11:00,
2013-06-28 12:22:00,85.0,-99.9,-100.00,NNE,19,4.0,5.0,-999,-99.99,,,-99.99,,2013-06-28 19:22:00,
2013-06-28 12:43:00,84.0,-99.9,-100.00,ENE,70,4.0,6.0,-999,-99.99,,,-99.99,,2013-06-28 19:43:00,
2013-06-28 12:53:00,85.0,-99.9,-100.00,ENE,64,2.0,6.0,-999,-99.99,,,-99.99,,2013-06-28 19:53:00,
2013-06-28 13:11:00,85.0,-99.9,-100.00,ENE,63,3.0,5.0,-999,-99.99,,,-99.99,,2013-06-28 20:11:00,
2013-06-28 13:20:00,87.0,-99.9,-100.00,North,352,2.0,4.0,-999,-99.99,,,-99.99,,2013-06-28 20:20:00,
2013-06-28 13:43:00,88.0,-99.9,-100.00,NE,51,4.0,5.0,-999,-99.99,,,-99.99,,2013-06-28 20:43:00,
2013-06-28 13:52:00,88.0,-99.9,-100.00,NE,51,4.0,5.0,-999,-99.99,,,-99.99,,2013-06-28 20:52:00,
2013-06-28 14:11:00,87.0,-99.9,-100.00,North,352,2.0,4.0,-999,-99.99,,,-99.99,,2013-06-28 21:11:00,
2013-06-28 14:43:00,91.0,-99.9,-100.00,NNW,340,2.0,3.0,-999,-99.99,,,-99.99,,2013-06-28 21:43:00,
2013-06-28 14:53:00,91.0,-99.9,-100.00,NNW,340,2.0,3.0,-999,-99.99,,,-99.99,,2013-06-28 21:53:00,
2013-06-28 15:00:00,92.0,-99.9,-100.00,NW,326,3.0,4.0,-999,-99.99,,,-99.99,,2013-06-28 22:00:00,
2013-06-28 15:01:00,87.0,-99.9,-100.00,WNW,292,2.0,4.0,-999,-99.99,,,-99.99,,2013-06-28 22:01:00,
2013-06-28 15:11:00,87.0,-99.9,-100.00,WNW,292,2.0,4.0,-999,-99.99,,,-99.99,,2013-06-28 22:11:00,
2013-06-28 15:34:00,92.0,-99.9,-100.00,NNW,343,2.0,3.0,-999,-99.99,,,-99.99,,2013-06-28 22:34:00,
2013-06-28 15:43:00,92.0,-99.9,-100.00,NNW,343,2.0,3.0,-999,-99.99,,,-99.99,,2013-06-28 22:43:00,
2013-06-28 15:53:00,92.0,-99.9,-100.00,NW,326,3.0,4.0,-999,-99.99,,,-99.99,,2013-06-28 22:53:00,
2013-06-28 16:00:00,94.0,-99.9,-100.00,West,269,1.0,3.0,-999,-99.99,,,-99.99,,2013-06-28 23:00:00,
2013-06-28 16:34:00,94.0,-99.9,-100.00,West,269,1.0,3.0,-999,-99.99,,,-99.99,,2013-06-28 23:34:00,
2013-06-28 16:43:00,94.0,-99.9,-100.00,West,269,1.0,3.0,-999,-99.99,,,-99.99,,2013-06-28 23:43:00,
2013-06-28 16:53:00,94.0,-99.9,-100.00,West,269,1.0,3.0,-999,-99.99,,,-99.99,,2013-06-28 23:53:00,
2013-06-28 18:00:00,95.0,-99.9,-100.00,WSW,246,6.0,9.0,-999,-99.99,,,-99.99,,2013-06-29 01:00:00,
2013-06-28 18:32:00,95.0,-99.9,-100.00,WSW,246,6.0,9.0,-999,-99.99,,,-99.99,,2013-06-29 01:32:00,
2013-06-28 18:42:00,95.0,-99.9,-100.00,WSW,246,6.0,9.0,-999,-99.99,,,-99.99,,2013-06-29 01:42:00,
2013-06-28 18:52:00,95.0,-99.9,-100.00,WSW,246,6.0,9.0,-999,-99.99,,,-99.99,,2013-06-29 01:52:00,
2013-06-28 19:31:00,91.0,-99.9,-100.00,SW,231,7.0,14.0,-999,-99.99,,,-99.99,,2013-06-29 02:31:00,
2013-06-28 19:41:00,91.0,-99.9,-100.00,SW,231,7.0,14.0,-999,-99.99,,,-99.99,,2013-06-29 02:41:00,
2013-06-28 19:51:00,91.0,-99.9,-100.00,SW,228,7.0,13.0,-999,-99.99,,,-99.99,,2013-06-29 02:51:00,
2013-06-28 20:11:00,93.0,-99.9,-100.00,West,264,8.0,9.0,-999,-99.99,,,-99.99,,2013-06-29 03:11:00,
2013-06-28 20:21:00,93.0,-99.9,-100.00,West,264,8.0,9.0,-999,-99.99,,,-99.99,,2013-06-29 03:21:00,
2013-06-28 20:32:00,90.0,-99.9,-100.00,West,269,6.0,12.0,-999,-99.99,,,-99.99,,2013-06-29 03:32:00,
2013-06-28 20:41:00,90.0,-99.9,-100.00,West,269,6.0,12.0,-999,-99.99,,,-99.99,,2013-06-29 03:41:00,
2013-06-28 20:51:00,91.0,-99.9,-100.00,West,269,11.0,12.0,-999,-99.99,,,-99.99,,2013-06-29 03:51:00,
2013-06-28 21:00:00,86.0,-99.9,-100.00,SW,221,12.0,16.0,-999,-99.99,,,-99.99,,2013-06-29 04:00:00,
2013-06-28 21:01:00,90.0,-99.9,-100.00,SW,229,13.0,13.0,-999,-99.99,,,-99.99,,2013-06-29 04:01:00,
2013-06-28 21:11:00,90.0,-99.9,-100.00,SW,229,13.0,13.0,-999,-99.99,,,-99.99,,2013-06-29 04:11:00,
2013-06-28 21:32:00,86.0,-99.9,-100.00,SW,221,12.0,16.0,-999,-99.99,,,-99.99,,2013-06-29 04:32:00,
2013-06-28 21:41:00,86.0,-99.9,-100.00,SW,221,12.0,16.0,-999,-99.99,,,-99.99,,2013-06-29 04:41:00,
2013-06-28 21:51:00,86.0,-99.9,-100.00,SW,221,12.0,16.0,-999,-99.99,,,-99.99,,2013-06-29 04:51:00,
2013-06-28 22:42:00,83.0,-99.9,-100.00,WNW,302,7.0,9.0,-999,-99.99,,,-99.99,,2013-06-29 05:42:00,
2013-06-28 22:52:00,83.0,-99.9,-100.00,WNW,302,7.0,9.0,-999,-99.99,,,-99.99,,2013-06-29 05:52:00,
2013-06-28 23:12:00,83.0,-99.9,-100.00,West,272,4.0,7.0,-999,-99.99,,,-99.99,,2013-06-29 06:12:00,
2013-06-28 23:43:00,84.0,-99.9,-100.00,West,275,3.0,8.0,-999,-99.99,,,-99.99,,2013-06-29 06:43:00,
2013-06-28 23:53:00,81.0,-99.9,-100.00,WNW,283,5.0,7.0,-999,-99.99,,,-99.99,,2013-06-29 06:53:00,